#timestamp,LO_Frequency,Hit 
1502172015.3,286046999.4,N
1502172035.2,286046998.2,N
1502172055.9,286047000.5,N
1502172075.7,286047003.4,N
1502172095.6,286047007.2,P
1502172115.4,286047003.5,N
1502172135.2,286047002.1,N
1502172155.1,286047002.3,N
1502172156.0,286047002.3,N
1502172175.8,286047004.3,N
1502172195.7,286047005.3,N
1502172215.5,286047005.1,N
1502172235.3,286047003.4,N
1502172255.2,286047002.1,N
1502172275.0,286047001.8,N
1502172275.9,286047001.8,N
1502172295.8,286047003.2,N
1502172315.6,286047004.7,N
1502172335.4,286047005.6,P
1502172355.3,286046999.8,N
1502172375.1,286047001.1,N
1502172395.8,286047002.4,N
1502172415.7,286047002.6,N
1502172435.5,286047000.2,N
1502172455.4,286046998.4,N
1502172475.2,286046998.8,N
1502172495.0,286046999.3,N
1502172495.9,286046999.3,N
1502172515.8,286046996.6,N
1502172535.6,286046995.1,N
1502172555.5,286046997.2,N
1502172575.3,286046996.0,N
1502172595.1,286046995.0,N
1502172615.9,286046994.7,N
1502172635.7,286046992.7,N
1502172655.5,286046991.1,N
1502172675.4,286046990.4,N
1502172695.2,286046992.5,N
1502172715.1,286046993.9,N
1502172716.0,286046993.9,N
1502172735.8,286046993.8,N
1502172755.6,286046993.4,N
1502172775.5,286046997.7,N
1502172795.3,286046995.4,N
1502172815.1,286046996.3,N
1502172835.9,286046995.6,N
1502172855.7,286046996.4,N
1502172875.6,286046994.2,N
1502172895.4,286046996.8,N
1502172915.2,286046998.2,N
1502172935.1,286046999.3,N
1502172936.0,286046999.3,N
1502172955.8,286047002.2,N
1502172975.7,286046998.3,N
1502172995.5,286046998.2,N
1502173015.3,286047002.4,N
1502173035.2,286047000.0,N
1502173055.0,286047000.2,N
1502173055.9,286047000.2,N
1502173075.7,286046996.6,N
1502173095.6,286046995.7,N
1502173115.4,286046994.9,N
1502173135.3,286046997.5,N
1502173155.1,286046999.0,N
1502173156.0,286046999.0,N
1502173175.8,286046997.5,N
1502173195.7,286046994.6,N
1502173215.5,286046996.0,N
1502173235.4,286046995.2,N
1502173255.2,286046994.4,N
1502173275.0,286046996.3,N
1502173275.9,286046996.3,N
1502173295.8,286046998.0,N
1502173315.6,286046997.9,N
1502173335.4,286046996.7,N
1502173355.3,286046995.4,N
1502173375.1,286046998.9,N
1502173395.9,286046998.4,N
1502173415.7,286046995.2,N
1502173435.5,286046994.1,N
1502173455.4,286046994.5,N
1502173475.2,286046995.6,N
1502173495.0,286046996.8,N
1502173495.9,286046996.8,N
1502173515.8,286046999.5,N
1502173535.6,286046996.5,N
1502173555.5,286046999.5,N
1502173575.3,286046996.6,N
1502173595.1,286047001.0,N
1502173615.9,286046996.6,N
1502173635.7,286046996.1,N
1502173655.6,286046995.1,N
1502173675.4,286046997.5,N
1502173695.2,286046994.3,P
1502173715.1,286046997.0,N
1502173716.0,286046997.0,N
1502173735.8,286046998.1,N
1502173755.7,286047000.6,N
1502173775.5,286047004.0,N
1502173795.3,286047001.5,N
1502173815.2,286046999.7,N
1502173835.0,286047001.5,N
1502173835.9,286047001.5,N
1502173855.7,286047002.8,N
1502173875.6,286046998.1,N
1502173895.4,286046998.7,N
1502173915.3,286046999.9,N
1502173935.1,286047001.5,N
1502173936.0,286047001.5,N
1502173955.8,286047000.0,N
1502173975.7,286047000.0,N
1502173995.5,286047002.3,N
1502174015.3,286047000.1,N
1502174035.2,286047002.8,N
1502174055.0,286047000.8,N
1502174055.9,286047000.8,N
1502174075.8,286046999.6,N
1502174095.6,286046998.1,N
1502174115.4,286046999.4,N
1502174135.3,286046998.3,N
1502174155.1,286047000.7,N
1502174175.9,286047001.2,N
1502174195.7,286047000.4,N
1502174215.5,286047002.5,N
1502174235.4,286046999.9,N
1502174255.2,286046999.1,N
1502174275.0,286046999.6,N
1502174275.9,286046999.6,N
1502174295.8,286046998.9,N
1502174315.6,286047002.1,N
1502174335.5,286046999.8,N
1502174355.3,286047002.2,N
1502174375.1,286047000.1,N
1502174395.9,286047002.1,N
1502174415.7,286047001.8,N
1502174435.6,286046999.7,N
1502174455.4,286047002.0,N
1502174475.2,286047003.5,P
1502174495.1,286047000.9,N
1502174496.0,286047000.9,N
1502174515.8,286047000.5,N
1502174535.6,286047001.5,N
1502174555.5,286047001.4,N
1502174575.3,286047000.4,N
1502174595.2,286046999.1,N
1502174615.9,286047001.2,N
1502174635.7,286047002.7,N
1502174655.6,286047000.7,N
1502174675.4,286046999.1,N
1502174695.3,286046995.1,P
1502174715.1,286046992.2,N
1502174716.0,286046992.2,N
1502174735.8,286046995.5,N
1502174755.7,286046995.1,N
1502174775.5,286046999.0,N
1502174795.3,286046999.5,N
1502174815.2,286046999.8,N
1502174835.0,286047000.9,N
1502174835.9,286047000.9,N
1502174855.8,286046999.6,N
1502174875.6,286046997.5,N
1502174895.4,286047000.0,N
1502174915.3,286047002.6,N
1502174935.1,286047004.2,N
1502174955.9,286047004.3,N
1502174975.7,286047001.5,N
1502174995.5,286047001.4,N
1502175015.4,286046998.1,N
1502175035.2,286046996.8,N
1502175055.0,286047001.1,N
1502175055.9,286047001.1,N
1502175075.8,286046998.2,N
1502175095.6,286047000.4,N
1502175115.5,286046998.5,N
1502175135.3,286046999.7,N
1502175155.1,286047002.3,N
1502175175.9,286047003.8,N
1502175195.7,286046998.2,N
1502175215.5,286047000.7,N
1502175235.4,286047001.2,N
1502175255.2,286047001.2,N
1502175275.1,286047002.4,N
1502175276.0,286047002.4,N
1502175295.8,286047004.1,N
1502175315.6,286047003.3,N
1502175335.5,286047003.9,N
1502175355.3,286047003.2,N
1502175375.2,286047004.1,N
1502175395.9,286047003.7,N
1502175415.7,286047002.6,N
1502175435.6,286047001.6,N
1502175455.4,286047004.1,N
1502175475.3,286047003.8,N
1502175495.1,286047000.9,N
1502175515.8,286046999.3,N
1502175535.7,286047000.3,N
1502175555.5,286046997.2,N
1502175575.4,286046996.2,N
1502175595.2,286046996.4,N
